Location: Pian di Sc�
(43.6333°N, 11.5500°E)
Time: 13:07:46
(UTC+00:00)

Cosmos 1674 - Pass Details

Date: 07 August 2020
Orbit: 495 x 517 km, 82.5° (Epoch: 25 September)

Event Time Altitude Azimuth Distance (km) Brightness Sun altitude
Rises 01:35:18 0° 342° (NNW) 2,593 6.8 -22.5°
Reaches altitude 10° 01:37:32 10° 333° (NNW) 1,706 5.6 -22.2°
Enters shadow 01:39:39 26° 307° (NW) 1,010 4.1 -22.0°
